Total_Precipitation_Accumulation
1.77 2.14 2.44 2.99 3.57 3.88 4.26 4.42 4.39 4.23 3.93 3.52 3.15 2.86 2.63 2.48 2.24 2.09 1.97 1.88 1.81 1.88 2.15 2.01 2.07 2.08 2.04 2.05 2.10 2.09 1.92 1.61 1.82 1.84 1.42 1.03 0.84 0.79 0.59 0.54 0.56 0.55 0.57
1.70 2.18 2.41 2.62 3.10 3.59 4.01 4.25 4.38 4.24 3.82 3.35 3.04 2.85 2.78 2.46 2.16 2.11 2.07 1.93 1.97 1.94 1.96 1.98 1.94 1.96 1.98 1.90 1.86 1.91 1.73 1.45 1.59 1.67 1.59 1.07 0.83 0.68 0.52 0.57 0.64 0.68 0.73
2.00 2.21 2.33 2.46 2.69 3.12 3.40 3.46 3.58 3.53 3.28 3.17 3.08 2.93 2.86 2.51 2.34 2.34 2.30 2.15 2.14 2.08 2.04 1.95 1.83 1.68 1.60 1.55 1.58 1.65 1.62 1.45 1.42 1.60 1.77 1.39 1.00 0.88 0.68 0.66 0.68 0.78 0.88
1.62 1.70 1.95 2.23 2.43 2.67 2.97 3.15 3.19 3.10 2.91 2.87 2.79 2.63 2.40 2.29 2.39 2.58 2.49 2.23 2.03 1.86 1.66 1.51 1.50 1.46 1.41 1.33 1.24 1.32 1.35 1.27 1.21 1.32 1.44 1.51 1.48 1.37 0.90 0.64 0.61 0.72 0.83
1.32 1.34 1.54 1.85 1.96 2.23 2.47 2.71 2.91 2.95 2.79 2.69 2.59 2.55 2.39 2.32 2.31 2.23 2.11 1.92 1.71 1.48 1.23 1.15 1.17 1.15 1.13 1.08 1.03 1.03 1.01 1.02 1.03 1.15 1.30 1.39 1.44 1.44 1.30 0.93 0.86 0.86 0.79
1.14 1.25 1.39 1.63 1.72 1.81 1.88 2.01 2.22 2.40 2.43 2.37 2.33 2.28 2.14 2.04 1.90 1.66 1.51 1.39 1.27 1.08 0.89 0.81 0.85 0.91 0.97 0.94 0.90 0.90 0.88 0.93 1.03 1.05 1.14 1.28 1.26 1.25 1.34 1.13 1.02 0.97 0.85
0.85 1.06 1.17 1.23 1.33 1.40 1.43 1.54 1.76 2.02 2.04 1.94 1.92 1.92 1.80 1.70 1.56 1.42 1.25 1.12 1.00 0.83 0.76 0.71 0.74 0.79 0.86 0.81 0.78 0.77 0.85 0.97 1.05 1.02 1.07 1.18 1.21 1.24 1.34 1.30 1.19 1.12 1.05
0.63 0.75 0.94 1.09 1.11 1.12 1.19 1.31 1.54 1.69 1.68 1.56 1.59 1.64 1.54 1.49 1.37 1.31 1.09 0.93 0.85 0.81 0.82 0.75 0.71 0.69 0.70 0.69 0.73 0.72 0.77 0.89 0.98 0.93 1.05 1.15 1.20 1.34 1.47 1.50 1.47 1.32 1.20
0.59 0.59 0.67 0.81 0.87 0.88 0.94 1.03 1.28 1.45 1.47 1.41 1.44 1.47 1.43 1.32 1.17 1.07 0.95 0.81 0.80 0.79 0.86 0.81 0.76 0.73 0.74 0.76 0.83 0.87 0.95 1.08 1.13 1.17 1.27 1.29 1.25 1.29 1.37 1.43 1.48 1.52 1.35
0.38 0.36 0.39 0.46 0.55 0.66 0.79 0.89 0.99 1.11 1.17 1.15 1.15 1.18 1.23 1.14 1.03 0.96 0.83 0.71 0.67 0.72 0.83 0.85 0.80 0.76 0.72 0.76 0.86 1.04 1.20 1.30 1.33 1.35 1.42 1.45 1.39 1.39 1.45 1.44 1.49 1.58 1.49
0.28 0.30 0.34 0.41 0.49 0.54 0.66 0.77 0.83 0.92 1.00 0.99 1.00 1.01 1.00 1.02 0.97 0.87 0.74 0.68 0.67 0.66 0.69 0.72 0.74 0.72 0.71 0.73 0.81 0.92 1.11 1.23 1.25 1.25 1.30 1.31 1.30 1.28 1.26 1.33 1.44 1.57 1.56
0.36 0.33 0.34 0.44 0.50 0.55 0.60 0.63 0.67 0.77 0.90 1.02 1.16 1.19 1.11 1.04 0.94 0.82 0.72 0.68 0.65 0.63 0.63 0.64 0.62 0.60 0.61 0.67 0.75 0.85 0.96 1.04 1.06 1.05 1.06 1.01 1.00 1.03 1.02 1.09 1.17 1.26 1.44
0.39 0.35 0.36 0.40 0.43 0.51 0.57 0.55 0.58 0.66 0.78 0.99 1.29 1.40 1.30 1.16 0.99 0.80 0.65 0.59 0.59 0.60 0.59 0.58 0.57 0.61 0.70 0.78 0.83 0.85 0.86 0.87 0.90 0.98 1.04 0.95 0.90 0.90 0.92 0.96 0.94 0.99 1.16
0.41 0.42 0.41 0.46 0.48 0.49 0.56 0.57 0.60 0.62 0.72 0.87 1.07 1.16 1.06 0.95 0.85 0.70 0.54 0.48 0.49 0.54 0.57 0.61 0.64 0.70 0.75 0.81 0.85 0.86 0.83 0.76 0.71 0.76 0.82 0.83 0.80 0.78 0.84 0.87 0.89 0.92 1.05
0.36 0.38 0.35 0.40 0.47 0.47 0.54 0.51 0.46 0.42 0.49 0.64 0.71 0.79 0.75 0.66 0.62 0.59 0.53 0.50 0.53 0.53 0.59 0.65 0.69 0.70 0.68 0.65 0.62 0.63 0.64 0.62 0.58 0.54 0.55 0.60 0.65 0.67 0.69 0.71 0.83 0.91 0.96
0.26 0.25 0.30 0.34 0.35 0.34 0.35 0.30 0.29 0.33 0.40 0.48 0.54 0.64 0.72 0.67 0.59 0.56 0.54 0.51 0.54 0.57 0.61 0.64 0.69 0.70 0.57 0.60 0.52 0.45 0.46 0.50 0.51 0.54 0.54 0.52 0.51 0.52 0.52 0.53 0.60 0.73 0.82
0.23 0.19 0.25 0.29 0.26 0.25 0.25 0.27 0.29 0.36 0.45 0.53 0.61 0.69 0.76 0.74 0.70 0.63 0.64 0.61 0.63 0.65 0.65 0.64 0.64 0.64 0.65 0.65 0.55 0.41 0.37 0.40 0.44 0.48 0.51 0.45 0.42 0.47 0.48 0.50 0.49 0.50 0.58
0.22 0.18 0.19 0.22 0.25 0.27 0.28 0.31 0.37 0.46 0.53 0.61 0.70 0.80 0.85 0.82 0.81 0.83 0.86 0.86 0.85 0.82 0.79 0.74 0.70 0.74 0.71 0.65 0.52 0.43 0.37 0.38 0.41 0.45 0.49 0.48 0.42 0.41 0.48 0.53 0.51 0.46 0.46
0.24 0.23 0.21 0.26 0.32 0.35 0.35 0.44 0.52 0.61 0.70 0.76 0.83 0.91 0.99 1.01 1.01 1.04 1.04 1.07 1.08 0.97 0.88 0.82 0.81 0.79 0.80 0.75 0.59 0.52 0.47 0.48 0.48 0.50 0.50 0.49 0.46 0.46 0.44 0.49 0.53 0.54 0.52
0.28 0.29 0.28 0.35 0.42 0.47 0.52 0.61 0.68 0.74 0.84 0.91 1.05 1.20 1.31 1.33 1.31 1.36 1.34 1.28 1.22 1.12 1.10 1.05 1.03 1.02 1.07 1.11 0.90 0.78 0.70 0.69 0.68 0.72 0.68 0.58 0.51 0.51 0.49 0.50 0.56 0.56 0.56
0.35 0.33 0.33 0.39 0.51 0.59 0.70 0.82 0.95 1.03 0.98 1.04 1.19 1.39 1.52 1.59 1.63 1.71 1.68 1.61 1.56 1.53 1.48 1.36 1.32 1.34 1.35 1.38 1.15 1.00 0.91 0.92 0.98 0.97 0.89 0.83 0.72 0.62 0.61 0.58 0.59 0.55 0.56
0.40 0.40 0.39 0.48 0.59 0.73 0.83 0.94 1.02 1.00 1.01 1.08 1.21 1.36 1.50 1.54 1.63 1.81 1.85 1.84 1.82 1.75 1.70 1.64 1.49 1.46 1.44 1.34 1.18 0.99 0.88 0.96 1.10 1.16 1.09 1.01 0.86 0.68 0.61 0.54 0.51 0.48 0.46
0.39 0.40 0.44 0.58 0.72 0.89 1.00 1.08 1.02 1.06 1.09 1.13 1.27 1.42 1.51 1.57 1.67 1.71 1.71 1.72 1.76 1.74 1.66 1.64 1.55 1.50 1.51 1.44 1.16 0.97 0.88 0.88 1.00 1.14 1.15 1.01 0.86 0.73 0.62 0.55 0.52 0.48 0.45
0.34 0.37 0.42 0.52 0.62 0.74 0.86 1.01 1.08 1.14 1.19 1.26 1.32 1.41 1.52 1.55 1.57 1.68 1.76 1.82 1.90 1.95 1.85 1.74 1.65 1.59 1.54 1.45 1.29 1.12 1.01 1.02 1.08 1.17 1.21 1.09 0.98 0.86 0.79 0.70 0.61 0.57 0.60
0.33 0.36 0.43 0.50 0.56 0.63 0.71 0.80 0.89 1.02 1.13 1.20 1.26 1.31 1.37 1.45 1.54 1.61 1.67 1.66 1.71 1.69 1.64 1.57 1.56 1.56 1.53 1.38 1.29 1.19 1.07 1.12 1.20 1.24 1.32 1.23 1.18 1.09 1.01 0.93 0.88 0.86 0.85
0.38 0.41 0.43 0.47 0.52 0.58 0.70 0.77 0.86 1.01 1.16 1.25 1.28 1.24 1.23 1.30 1.36 1.43 1.43 1.37 1.28 1.25 1.19 1.18 1.19 1.18 1.13 1.05 0.95 0.92 0.92 0.96 1.08 1.15 1.31 1.37 1.35 1.31 1.24 1.13 1.04 0.99 0.94